sat.trackr.live / text

‹ back to catalog

KUIPER-00039

NORAD 64500 · 2025-134A

PAYLOAD ACTIVE UNKNOWN

§ Identity

Operator
Country
US
Launch date
2025-06-23
Launch site
AFETR
Launch vehicle
Mass (kg)
RCS (m²)

External: N2YO · Heavens-Above · Gunter

§ Orbital elements

Epoch: 2026-05-25T00:09:24.861600Z

Period
97.30 min
Inclination
51.9001°
Eccentricity
0.0000357
Mean motion
14.79936619 rev/d
Perigee alt
629.3 km
Apogee alt
629.8 km
Semi-major
7,007.7 km
B*
2.2706e-4
RAAN
255.6295°
Arg perigee
113.8412°
Mean anomaly
246.2588°
Rev number
5,137

§ Raw data

KUIPER-000391 64500U 25134A   26145.00653775  .00001510  00000+0  22706-3 0  99972 64500  51.9001 255.6295 0000357 113.8412 246.2588 14.79936619 51378

JSON: /api/v1/satellites/64500 · /tle

For live sub-satellite position, see the globe view (requires WebGL).

§ Visibility from observer

Set your observer location to see the next 7 days of passes ≥ 10°. The values pass through the URL so the page stays shareable.

No JS? Fill the form by hand. The geolocation button needs JavaScript.